User: anonymous   Login
Location: Ostrava
(49.8330°N, 18.2830°E)
Time: 15:30:02
(UTC+02:00)
Language:

Explorer 7 - Orbit

View from above orbital plane
View from above orbital plane
View from above satellite
View from above satellite

Ground track
Ground track

The orbit data is extracted from the following two-line orbital elements,

1 00022U 59009A   16149.62616184  .00000314  00000-0  47950-4 0  9999
2 00022  50.2838 203.0005 0143796   6.8462 353.4405 14.93478384  3860
Epoch (UTC): 28 May 2016 15:01:40
Eccentricity: 0.0143796
inclination: 50.2838°
perigee height: 487 km
apogee height: 687 km
right ascension of ascending node: 203.0005°
argument of perigee: 6.8462°
revolutions per day: 14.93478384
mean anomaly at epoch: 353.4405°
orbit number at epoch: 386

The dashed part of the orbit path shows where the satellite is in the earth's shadow,  

DLR